Macomb, IL

3:01 AM CDT on August 24, 2019 (GMT -0500)
Macomb Municipal

Weather History for KMQB - July, 2019

Change the Weather History Date:

Monday, July 22, 2019

  Actual Average (WUND) Record (WUND)
Temperature  
Mean Temperature 70 °F -  
Max Temperature 80 °F - - (-1)
Min Temperature 61 °F - - (-1)
Cooling Degree Days 5    
Growing Degree Days 20 (Base 50)    
Moisture  
Dew Point 62 °F    
Average Humidity 74    
Maximum Humidity 96    
Minimum Humidity 52    
Precipitation  
Precipitation 0.00 in - - ()
Sea Level Pressure  
Sea Level Pressure 30.09 in    
Wind  
Wind Speed 8 mph (North)    
Max Wind Speed 15 mph    
Max Gust Speed 22 mph    
Visibility 10 miles    
Events Rain    
Averages and records for this station are not official NWS values.
T = Trace of Precipitation, MM = Missing Value Source: NWS Daily Summary

Daily Weather History Graph

Daily Weather History Graph

Search for Another Location

Airport or City:

Astronomy

Jul. 22, 2019 Rise Set
Actual Time 5:50 AM CDT 8:27 PM CDT
Civil Twilight 5:18 AM CDT 8:58 PM CDT
Nautical Twilight 4:39 AM CDT 9:37 PM CDT
Astronomical Twilight 3:54 AM CDT 10:22 PM CDT
Moon 11:46 PM CDT (7/22) 11:08 AM CDT (7/22)
Length of Visible Light 15h 39m
Length of Day
14h 36m
Waning Gibbous, 72% of the Moon is Illuminated
Jul 22
Waning Gibbous
Jul 24
Last Quarter
Jul 31
New
Aug 7
First Quarter
Aug 15
Full

Hourly Weather History & Observations

Time (CDT) Temp. Dew Point Humidity Pressure Visibility Wind Dir Wind Speed Gust Speed Precip Events Conditions
12:15 AM 72.5 °F 68.0 °F 86% 30.01 in 10.0 mi NNE 9.2 mph - N/A   Overcast
12:35 AM 72.7 °F 65.7 °F 79% 30.01 in 10.0 mi North 8.1 mph - N/A Rain Light Rain
12:55 AM 70.9 °F 67.5 °F 89% 30.02 in 10.0 mi NNW 5.8 mph - N/A Rain Light Rain
1:15 AM 70.2 °F 67.1 °F 90% 30.03 in 10.0 mi North 5.8 mph - N/A Rain Light Rain
1:35 AM 70.0 °F 66.6 °F 89% 30.02 in 10.0 mi North 4.6 mph - N/A   Light Drizzle
1:55 AM 69.8 °F 66.6 °F 89% 30.03 in 10.0 mi North 5.8 mph - N/A   Overcast
2:15 AM 69.3 °F 65.5 °F 88% 30.03 in 10.0 mi North 6.9 mph - N/A   Mostly Cloudy
2:35 AM 68.5 °F 65.5 °F 90% 30.03 in 10.0 mi NNW 6.9 mph - N/A Rain Light Rain
2:55 AM 68.7 °F 65.7 °F 90% 30.02 in 10.0 mi NNE 3.5 mph - N/A Rain Light Rain
3:15 AM 68.0 °F 65.8 °F 93% 30.03 in 10.0 mi North 4.6 mph - N/A Rain Light Rain
3:35 AM 68.0 °F 65.5 °F 92% 30.03 in 10.0 mi North 5.8 mph - N/A Rain Light Rain
3:55 AM 68.0 °F 65.7 °F 92% 30.03 in 10.0 mi North 3.5 mph - N/A   Scattered Clouds
4:15 AM 67.6 °F 66.0 °F 95% 30.03 in 10.0 mi NNW 5.8 mph - N/A   Clear
4:35 AM 67.3 °F 65.5 °F 94% 30.03 in 10.0 mi NNW 5.8 mph - N/A   Clear
4:55 AM 66.6 °F 65.3 °F 96% 30.04 in 10.0 mi NW 4.6 mph - N/A   Clear
5:15 AM 66.2 °F 64.8 °F 95% 30.04 in 10.0 mi NW 4.6 mph - N/A   Clear
5:55 AM 64.9 °F 63.7 °F 96% 30.05 in 10.0 mi NW 5.8 mph - N/A   Clear
6:15 AM 64.9 °F 63.3 °F 94% 30.05 in 10.0 mi NNW 5.8 mph - N/A   Clear
6:35 AM 65.3 °F 63.0 °F 92% 30.06 in 10.0 mi NNW 6.9 mph - N/A   Clear
6:55 AM 65.3 °F 62.8 °F 92% 30.06 in 10.0 mi North 5.8 mph - N/A   Clear
7:15 AM 65.7 °F 62.8 °F 90% 30.07 in 10.0 mi North 6.9 mph - N/A   Scattered Clouds
7:35 AM 66.4 °F 62.6 °F 88% 30.07 in 10.0 mi North 5.8 mph - N/A   Overcast
7:55 AM 67.3 °F 62.8 °F 85% 30.07 in 10.0 mi North 5.8 mph - N/A   Overcast
8:15 AM 67.3 °F 62.6 °F 85% 30.08 in 10.0 mi North 5.8 mph - N/A   Overcast
8:35 AM 68.0 °F 63.1 °F 84% 30.08 in 10.0 mi North 5.8 mph - N/A   Mostly Cloudy
8:55 AM 70.3 °F 63.7 °F 79% 30.08 in 10.0 mi North 9.2 mph - N/A   Scattered Clouds
9:15 AM 71.8 °F 63.9 °F 76% 30.08 in 10.0 mi North 10.4 mph - N/A   Clear
9:35 AM 73.4 °F 64.2 °F 73% 30.08 in 10.0 mi North 12.7 mph - N/A   Clear
9:55 AM 73.8 °F 63.7 °F 71% 30.09 in 10.0 mi NNE 9.2 mph - N/A   Clear
10:15 AM 74.5 °F 62.6 °F 66% 30.08 in 10.0 mi NE 11.5 mph - N/A   Clear
10:35 AM 75.4 °F 62.1 °F 63% 30.08 in 10.0 mi NNE 9.2 mph - N/A   Clear
10:55 AM 76.5 °F 61.5 °F 60% 30.09 in 10.0 mi NNE 8.1 mph - N/A   Clear
11:15 AM 77.0 °F 60.4 °F 56% 30.09 in 10.0 mi North 11.5 mph - N/A   Clear
11:35 AM 77.7 °F 62.4 °F 59% 30.09 in 10.0 mi NE 10.4 mph - N/A   Clear
11:55 AM 77.7 °F 63.1 °F 61% 30.09 in 10.0 mi North 9.2 mph 16.1 mph N/A   Scattered Clouds
12:15 PM 78.6 °F 63.1 °F 59% 30.10 in 10.0 mi NNE 11.5 mph 19.6 mph N/A   Scattered Clouds
12:35 PM 77.5 °F 62.6 °F 60% 30.10 in 10.0 mi NNE 9.2 mph - N/A   Scattered Clouds
12:55 PM 78.8 °F 62.8 °F 58% 30.10 in 10.0 mi NNE 11.5 mph 18.4 mph N/A   Scattered Clouds
1:15 PM 79.2 °F 62.8 °F 57% 30.10 in 10.0 mi NNE 10.4 mph - N/A   Scattered Clouds
1:35 PM 78.8 °F 63.0 °F 58% 30.10 in 10.0 mi NNE 10.4 mph 17.3 mph N/A   Mostly Cloudy
1:55 PM 79.7 °F 63.7 °F 58% 30.10 in 10.0 mi NNE 12.7 mph 16.1 mph N/A   Scattered Clouds
2:15 PM 79.3 °F 62.2 °F 56% 30.10 in 10.0 mi NNE 13.8 mph 17.3 mph N/A   Scattered Clouds
2:35 PM 79.3 °F 62.8 °F 57% 30.10 in 10.0 mi NNE 10.4 mph 17.3 mph N/A   Scattered Clouds
2:55 PM 79.0 °F 62.8 °F 57% 30.10 in 10.0 mi North 13.8 mph 18.4 mph N/A   Scattered Clouds
3:15 PM 77.0 °F 63.0 °F 62% 30.10 in 10.0 mi North 9.2 mph 17.3 mph N/A   Mostly Cloudy
3:35 PM 78.3 °F 60.8 °F 55% 30.10 in 10.0 mi North 9.2 mph 21.9 mph N/A   Mostly Cloudy
3:55 PM 77.2 °F 62.2 °F 60% 30.10 in 10.0 mi NNE 11.5 mph 17.3 mph N/A   Mostly Cloudy
4:15 PM 77.9 °F 61.0 °F 56% 30.10 in 10.0 mi NNE 11.5 mph 18.4 mph N/A   Scattered Clouds
4:35 PM 79.0 °F 60.8 °F 54% 30.10 in 10.0 mi North 12.7 mph - N/A   Scattered Clouds
4:55 PM 78.4 °F 60.3 °F 53% 30.10 in 10.0 mi North 13.8 mph 17.3 mph N/A   Scattered Clouds
5:15 PM 77.5 °F 59.7 °F 54% 30.10 in 10.0 mi North 10.4 mph - N/A   Scattered Clouds
5:35 PM 78.1 °F 59.2 °F 52% 30.10 in 10.0 mi NNE 12.7 mph - N/A   Scattered Clouds
5:55 PM 77.5 °F 59.2 °F 53% 30.10 in 10.0 mi NNE 11.5 mph 17.3 mph N/A   Scattered Clouds
6:15 PM 77.2 °F 59.7 °F 55% 30.10 in 10.0 mi North 11.5 mph 18.4 mph N/A   Scattered Clouds
6:35 PM 77.0 °F 59.7 °F 55% 30.11 in 10.0 mi NNE 15.0 mph - N/A   Scattered Clouds
6:55 PM 76.1 °F 58.6 °F 55% 30.11 in 10.0 mi NNE 11.5 mph - N/A   Scattered Clouds
7:15 PM 75.4 °F 58.1 °F 55% 30.11 in 10.0 mi North 9.2 mph - N/A   Clear
7:35 PM 74.1 °F 58.8 °F 59% 30.12 in 10.0 mi NNE 5.8 mph - N/A   Clear
7:55 PM 72.7 °F 59.2 °F 62% 30.12 in 10.0 mi North 6.9 mph - N/A   Clear
8:15 PM 70.9 °F 58.8 °F 66% 30.13 in 10.0 mi North 5.8 mph - N/A   Clear
8:35 PM 69.3 °F 59.2 °F 70% 30.13 in 10.0 mi North 5.8 mph - N/A   Clear
8:55 PM 68.9 °F 59.2 °F 71% 30.13 in 10.0 mi North 5.8 mph - N/A   Scattered Clouds
9:15 PM 67.6 °F 59.4 °F 75% 30.14 in 10.0 mi North 5.8 mph - N/A   Scattered Clouds
9:35 PM 67.1 °F 59.2 °F 76% 30.15 in 10.0 mi North 5.8 mph - N/A   Scattered Clouds
9:55 PM 66.2 °F 59.0 °F 78% 30.16 in 10.0 mi North 4.6 mph - N/A   Scattered Clouds
10:15 PM 64.9 °F 59.4 °F 82% 30.16 in 10.0 mi North 5.8 mph - N/A   Clear
10:35 PM 64.0 °F 59.4 °F 85% 30.16 in 10.0 mi North 4.6 mph - N/A   Clear
10:55 PM 63.1 °F 59.2 °F 87% 30.16 in 10.0 mi North 5.8 mph - N/A   Clear
11:15 PM 62.6 °F 59.0 °F 88% 30.17 in 10.0 mi North 4.6 mph - N/A   Clear
11:35 PM 61.3 °F 58.3 °F 90% 30.17 in 10.0 mi NNW 4.6 mph - N/A   Clear
11:55 PM 61.3 °F 58.1 °F 89% 30.17 in 10.0 mi NNW 5.8 mph - N/A   Clear